When you browse on this site, cookies collect data to enhance your experience and personalize the content and advertising you see.
Visit our Privacy Policy to learn more. By continuing to use the site, you agree to this use of cookies and data.
  • en Suisse
  • Liste des pays
  • À 7 jours
  • Température de l'eau
  • Carte satellitaire
  • Carte météo
  • Widgets météo
  • user-avatar
    Se connecter

    Météo par heure à Lehrte

    Ce jour, 23 Juillet, Mardi

    Heure Température Précipitation Vent Pression Humidité
    00:00 +20°C° 0 mm 1 m/s 761 mmHg 84%
    01:00 +20°C° 0 mm 1 m/s 761 mmHg 88%
    02:00 +20°C° 0 mm 1 m/s 761 mmHg 89%
    03:00 +19°C° 0 mm 1 m/s 761 mmHg 90%
    04:00 +19°C° 0 mm 1 m/s 761 mmHg 91%
    05:00 +20°C° 0 mm 1 m/s 761 mmHg 88%
    06:00 +21°C° 0 mm 1 m/s 761 mmHg 84%
    07:00 +23°C° 0 mm 1 m/s 761 mmHg 80%
    08:00 +24°C° 0 mm 1 m/s 761 mmHg 73%
    09:00 +26°C° 0 mm 1 m/s 761 mmHg 65%
    10:00 +28°C° 0 mm 1 m/s 761 mmHg 58%
    11:00 +29°C° 0 mm 1 m/s 761 mmHg 53%
    12:00 +30°C° 0 mm 1 m/s 761 mmHg 49%
    13:00 +31°C° 0 mm 1 m/s 760 mmHg 44%
    14:00 +31°C° 0 mm 1 m/s 760 mmHg 43%
    15:00 +32°C° 0 mm 1 m/s 760 mmHg 42%
    16:00 +32°C° 0 mm 1 m/s 760 mmHg 41%
    17:00 +31°C° 0 mm 1 m/s 759 mmHg 46%
    18:00 +30°C° 0 mm 1 m/s 759 mmHg 51%
    19:00 +29°C° 0 mm 1 m/s 759 mmHg 56%
    20:00 +27°C° 0 mm 1 m/s 759 mmHg 61%
    21:00 +25°C° 0 mm 1 m/s 759 mmHg 65%
    22:00 +23°C° 0 mm 2 m/s 760 mmHg 70%
    23:00 +23°C° 0 mm 1 m/s 759 mmHg 72%

    Demain, 24 Juillet, Mercredi

    Heure Température Précipitation Vent Pression Humidité
    00:00 +22°C° 0 mm 1 m/s 759 mmHg 74%
    01:00 +21°C° 0 mm 1 m/s 759 mmHg 76%
    02:00 +21°C° 0 mm 1 m/s 759 mmHg 77%
    03:00 +21°C° 0 mm 1 m/s 758 mmHg 78%
    04:00 +20°C° 0 mm 1 m/s 758 mmHg 79%
    05:00 +20°C° 0 mm 2 m/s 758 mmHg 77%
    06:00 +23°C° 0 mm 2 m/s 758 mmHg 75%
    07:00 +24°C° 0 mm 2 m/s 758 mmHg 73%
    08:00 +26°C° 0 mm 2 m/s 758 mmHg 67%
    09:00 +28°C° 0 mm 2 m/s 758 mmHg 61%
    10:00 +30°C° 0 mm 2 m/s 758 mmHg 55%
    11:00 +31°C° 0 mm 2 m/s 757 mmHg 52%
    12:00 +33°C° 0 mm 3 m/s 757 mmHg 49%
    13:00 +34°C° 0 mm 3 m/s 757 mmHg 46%
    14:00 +34°C° 0 mm 3 m/s 757 mmHg 46%
    15:00 +34°C° 0 mm 3 m/s 756 mmHg 46%
    16:00 +34°C° 0 mm 3 m/s 756 mmHg 46%
    17:00 +33°C° 0 mm 3 m/s 756 mmHg 52%
    18:00 +31°C° 0 mm 3 m/s 756 mmHg 57%
    19:00 +30°C° 0 mm 3 m/s 756 mmHg 62%
    20:00 +28°C° 0 mm 3 m/s 756 mmHg 64%
    21:00 +27°C° 0 mm 2 m/s 757 mmHg 65%
    22:00 +26°C° 0 mm 2 m/s 757 mmHg 66%
    23:00 +25°C° 0 mm 2 m/s 757 mmHg 66%

    Après-demain, 25 Juillet, Jeudi

    Heure Température Précipitation Vent Pression Humidité
    00:00 +24°C° 0 mm 2 m/s 757 mmHg 66%
    01:00 +24°C° 0 mm 2 m/s 757 mmHg 66%
    02:00 +23°C° 0 mm 2 m/s 757 mmHg 66%
    03:00 +23°C° 0 mm 2 m/s 757 mmHg 65%
    04:00 +23°C° 0 mm 2 m/s 757 mmHg 65%
    05:00 +24°C° 0 mm 2 m/s 757 mmHg 64%
    06:00 +24°C° 0 mm 2 m/s 757 mmHg 64%
    07:00 +25°C° 0 mm 2 m/s 757 mmHg 63%
    08:00 +27°C° 0 mm 2 m/s 757 mmHg 59%
    09:00 +29°C° 0 mm 2 m/s 757 mmHg 54%
    10:00 +31°C° 0 mm 3 m/s 758 mmHg 50%
    11:00 +33°C° 0 mm 3 m/s 757 mmHg 47%
    12:00 +34°C° 0 mm 3 m/s 757 mmHg 45%
    13:00 +35°C° 0 mm 3 m/s 757 mmHg 43%
    14:00 +35°C° 0 mm 3 m/s 757 mmHg 43%
    15:00 +35°C° 0 mm 3 m/s 757 mmHg 43%
    16:00 +35°C° 0 mm 4 m/s 757 mmHg 43%
    17:00 +34°C° 0 mm 3 m/s 757 mmHg 47%
    18:00 +31°C° 0 mm 3 m/s 757 mmHg 51%
    19:00 +30°C° 0 mm 3 m/s 756 mmHg 55%
    20:00 +29°C° 0 mm 3 m/s 757 mmHg 57%
    21:00 +27°C° 0 mm 3 m/s 757 mmHg 59%
    22:00 +25°C° 0 mm 3 m/s 757 mmHg 60%
    23:00 +25°C° 0 mm 3 m/s 757 mmHg 62%

    26 Juillet, Vendredi

    Heure Température Précipitation Vent Pression Humidité
    00:00 +24°C° 0 mm 3 m/s 757 mmHg 63%
    01:00 +22°C° 0 mm 3 m/s 757 mmHg 64%
    02:00 +21°C° 0 mm 3 m/s 757 mmHg 67%
    03:00 +21°C° 0 mm 3 m/s 757 mmHg 70%
    04:00 +20°C° 0 mm 3 m/s 756 mmHg 73%
    05:00 +21°C° 0 mm 3 m/s 756 mmHg 74%
    06:00 +22°C° 0 mm 3 m/s 756 mmHg 74%
    07:00 +22°C° 0 mm 4 m/s 756 mmHg 74%
    08:00 +25°C° 0 mm 4 m/s 756 mmHg 69%
    09:00 +27°C° 0 mm 5 m/s 756 mmHg 64%
    10:00 +28°C° 0 mm 5 m/s 756 mmHg 58%
    11:00 +29°C° 0 mm 5 m/s 756 mmHg 55%
    12:00 +30°C° 0 mm 6 m/s 756 mmHg 52%
    13:00 +32°C° 0 mm 6 m/s 755 mmHg 49%
    14:00 +32°C° 0 mm 6 m/s 755 mmHg 47%
    15:00 +32°C° 0 mm 6 m/s 755 mmHg 45%
    16:00 +32°C° 0 mm 6 m/s 754 mmHg 43%
    17:00 +30°C° 0 mm 5 m/s 754 mmHg 47%
    18:00 +29°C° 0 mm 5 m/s 754 mmHg 52%
    19:00 +28°C° 0 mm 4 m/s 754 mmHg 57%
    20:00 +26°C° 0 mm 4 m/s 754 mmHg 56%
    21:00 +25°C° 0 mm 5 m/s 754 mmHg 56%
    22:00 +22°C° 0 mm 5 m/s 754 mmHg 56%
    23:00 +21°C° 0 mm 5 m/s 754 mmHg 61%

    27 Juillet, Samedi

    Heure Température Précipitation Vent Pression Humidité
    00:00 +20°C° 0 mm 4 m/s 754 mmHg 66%
    01:00 +19°C° 0 mm 3 m/s 754 mmHg 71%
    02:00 +18°C° 0 mm 4 m/s 753 mmHg 75%
    03:00 +18°C° 0 mm 4 m/s 753 mmHg 79%
    04:00 +17°C° 0 mm 4 m/s 752 mmHg 82%
    05:00 +18°C° 0 mm 4 m/s 752 mmHg 80%
    06:00 +19°C° 0 mm 4 m/s 752 mmHg 77%
    07:00 +20°C° 0 mm 4 m/s 752 mmHg 74%
    08:00 +22°C° 0 mm 5 m/s 752 mmHg 67%
    09:00 +24°C° 0 mm 6 m/s 752 mmHg 61%
    10:00 +27°C° 0 mm 7 m/s 752 mmHg 54%
    11:00 +27°C° 0 mm 7 m/s 752 mmHg 51%
    12:00 +28°C° 0 mm 7 m/s 751 mmHg 49%
    13:00 +29°C° 0 mm 7 m/s 751 mmHg 47%
    14:00 +29°C° 0 mm 7 m/s 751 mmHg 47%
    15:00 +29°C° 0 mm 6 m/s 751 mmHg 46%
    16:00 +29°C° 0 mm 6 m/s 750 mmHg 46%
    17:00 +29°C° 0 mm 5 m/s 750 mmHg 50%
    18:00 +28°C° 0 mm 5 m/s 750 mmHg 55%
    19:00 +27°C° 0 mm 4 m/s 750 mmHg 59%
    20:00 +26°C° 0 mm 4 m/s 750 mmHg 60%
    21:00 +25°C° 0 mm 5 m/s 751 mmHg 61%
    22:00 +23°C° 0 mm 5 m/s 751 mmHg 62%
    23:00 +23°C° 0 mm 5 m/s 751 mmHg 66%

    28 Juillet, Dimanche

    Heure Température Précipitation Vent Pression Humidité
    00:00 +22°C° 0 mm 4 m/s 751 mmHg 69%
    01:00 +21°C° 0 mm 4 m/s 751 mmHg 73%
    02:00 +20°C° 0 mm 4 m/s 751 mmHg 75%
    03:00 +20°C° 0 mm 3 m/s 751 mmHg 77%
    04:00 +19°C° 0 mm 3 m/s 751 mmHg 80%
    05:00 +20°C° 0 mm 3 m/s 751 mmHg 78%
    06:00 +21°C° 0 mm 4 m/s 751 mmHg 76%
    07:00 +22°C° 0 mm 4 m/s 752 mmHg 74%
    08:00 +23°C° 0 mm 5 m/s 752 mmHg 69%
    09:00 +26°C° 0 mm 5 m/s 752 mmHg 64%
    10:00 +28°C° 0 mm 6 m/s 752 mmHg 58%
    11:00 +29°C° 0 mm 6 m/s 752 mmHg 55%
    12:00 +30°C° 0 mm 6 m/s 752 mmHg 51%
    13:00 +32°C° 0 mm 6 m/s 752 mmHg 47%
    14:00 +32°C° 0 mm 5 m/s 752 mmHg 46%
    15:00 +32°C° 0 mm 5 m/s 752 mmHg 45%
    16:00 +33°C° 0 mm 5 m/s 752 mmHg 45%
    17:00 +32°C° 0 mm 4 m/s 752 mmHg 49%
    18:00 +30°C° 0 mm 4 m/s 752 mmHg 53%
    19:00 +29°C° 0 mm 3 m/s 752 mmHg 58%
    20:00 +27°C° 0 mm 3 m/s 753 mmHg 61%
    21:00 +26°C° 0 mm 3 m/s 753 mmHg 64%
    22:00 +25°C° 0 mm 3 m/s 754 mmHg 68%
    23:00 +24°C° 0 mm 3 m/s 754 mmHg 72%
    Voir plus